Location: STAR School
(35.3054°N, 111.2976°W)
Time: 05:53:28
(UTC-07:00)

deb Explorer IX - Pass Details

Date: 31 May 2019
Orbit: 536 x 1115 km, 38.8° (Epoch: 24 June)

Event Time Altitude Azimuth Distance (km) Brightness Sun altitude
Exits shadow 02:51:35 55° 313° (NW) 642 ? -22.8°
Maximum altitude 02:52:19 72° 14° (NNE) 563 ? -22.7°
Drops below altitude 10° 02:56:21 10° 99° (E) 1,797 ? -22.2°
Sets 02:58:38 0° 102° (ESE) 2,721 ? -21.9°
